Regional Weather Roundup
Issued by NWS

Home | Current Version | Previous Version | Graphics & Text | Print | Product List | Glossary On
Versions: 1 2 3 4 5 6 7 8 9 10 11 12 13 14 15 16 17 18 19 20 21 22 23 24 25 26 27 28 29 30 31 32 33 34 35 36 37 38 39 40 41 42 43 44 45 46 47 48 49 50
000
ASUS43 KDMX 271604
RWRIA

WEATHER ROUNDUP FOR IOWA
NATIONAL WEATHER SERVICE DES MOINES IA
  ISSUED BY NWS QUAD CITIES IA IL
1100 AM CDT FRI MAR 27 2015

NOTE: "FAIR" INDICATES FEW OR NO CLOUDS BELOW 12,000 FEET WITH NO
SIGNIFICANT WEATHER AND/OR OBSTRUCTIONS TO VISIBILITY.

* - THESE STATIONS ARE NOT NWS STATIONS...THUS NOT UNDER NWS
QUALITY CONTROL.  THEY ALSO DO NOT REPORT WEATHER SUCH
AS PRECIPITATION OR FOG.

IAZ001>003-012>014-020>022-031>034-043>046-271700-
   NORTHWEST IOWA

CITY           SKY/WX    TMP DP  RH WIND       PRES   REMARKS
CARROLL *      SUNNY     30  12  47 N7G13     30.27S WCI  23
DENNISON *     SUNNY     30  12  47 VRB3      30.25F
LE MARS *      MOSUNNY   28  16  59 SW5       30.28F WCI  23
ORANGE CITY *  MOSUNNY   30   7  37 CALM      30.25F
SHELDON *      MOSUNNY   28  10  47 CALM      30.25S
SIOUX CITY     MOSUNNY   31  15  52 VRB3      30.29F
SPENCER        MOSUNNY   30  12  47 N5        30.26F WCI  25
STORM LAKE *   SUNNY     28  12  50 VRB5      30.26S WCI  23
$$

IAZ055>058-069>071-079>083-090>094-271700-
   SOUTHWEST IOWA

CITY           SKY/WX    TMP DP  RH WIND       PRES   REMARKS
ATLANTIC *     SUNNY     32  18  55 N5        30.28S WCI  27
AUDUBON *      SUNNY     32  16  51 CALM      30.27S
CLARINDA *     SUNNY     32  21  64 N7        30.31S WCI  26
COUNCIL BLFS * SUNNY     32  14  47 N3        30.28S
CRESTON *      MOSUNNY   32  19  59 N8        30.26S WCI  25
HARLAN *       SUNNY     32  19  59 VRB3      30.30F
LAMONI         MOSUNNY   34  16  47 N7G18     30.25S WCI  28
RED OAK *      SUNNY     32  21  64 VRB5      30.29F WCI  27
SHENANDOAH *   MOSUNNY   32  21  64 N9        30.31S WCI  24
$$

IAZ047>049-059>061-072>074-084-271700-
   CENTRAL IOWA

CITY           SKY/WX    TMP DP  RH WIND       PRES   REMARKS
AMES           SUNNY     32  10  40 VRB3      30.27S
ANKENY *       SUNNY     32  10  40 NE10      30.28S WCI  24
BOONE *        SUNNY     32   9  37 N9G20     30.25S WCI  24
CHARITON *     MOSUNNY   34  14  44 N12       30.25S WCI  25
DES MOINES     MOSUNNY   35  10  35 E9        30.27S WCI  28
GRINNELL *     SUNNY     32   9  38 N10       30.26S WCI  23
KNOXVILLE *    MOSUNNY   32  14  47 N13       30.25S WCI  22
MARSHALLTOWN   SUNNY     31  11  43 N10       30.26S WCI  22
PERRY *        FAIR      33  13  44 N3        30.27S
$$

IAZ004>006-015-016-023>025-035-036-271700-
   NORTH CENTRAL IOWA

CITY           SKY/WX    TMP DP  RH WIND       PRES   REMARKS
ALGONA *       SUNNY     28   7  40 CALM      30.27S
CLARION *      SUNNY     30   7  37 N6        30.27S WCI  24
ESTHERVILLE    SUNNY     27  13  55 CALM      30.26R
FORT DODGE *   SUNNY     30  10  43 N5        30.28R WCI  25
MASON CITY     SUNNY     30   8  39 N8        30.27S WCI  22
WEBSTER CITY * SUNNY     30   9  40 NE6       30.25S WCI  24
IOWA FALLS *   FAIR      30   9  42 NE5       30.27R WCI  25
$$

IAZ007>011-017>019-026>030-037>042-050>054-066-271700-
   NORTHEAST IOWA

CITY           SKY/WX    TMP DP  RH WIND       PRES   REMARKS
CEDAR RAPIDS   SUNNY     30   6  36 N15       30.24S WCI  19
CHARLES CITY * SUNNY     27  10  50 N8        30.27R WCI  18
CLINTON *      SUNNY     28   9  43 NE10G17   30.26S WCI  19
DECORAH *      SUNNY     25   5  42 N10       30.24S WCI  15
DUBUQUE        SUNNY     27   5  39 N14       30.22S WCI  16
MONTICELLO *   SUNNY     28   7  40 N9G17     30.25S WCI  20
OELWEIN *      SUNNY     28   9  43 N12       30.25F WCI  18
WATERLOO       SUNNY     31   9  39 N13       30.26S WCI  21
$$

IAZ064-065-067-068-078-271700-
   EAST CENTRAL IOWA

CITY           SKY/WX    TMP DP  RH WIND       PRES   REMARKS
DAVENPORT      SUNNY     28   5  37 NE12      30.24S WCI  18
IOWA CITY      SUNNY     31   6  35 N12       30.27S WCI  22
MT. PLEASANT * SUNNY     32  15  49 N14       30.24S WCI  22
MUSCATINE *    SUNNY     32   5  32 N13G25    30.26S WCI  22
QUAD CITIES    SUNNY     30   6  36 N12       30.23S WCI  20
$$

IAZ062-063-075>077-085>089-095>099-271700-
   SOUTHEAST IOWA

CITY           SKY/WX    TMP DP  RH WIND       PRES   REMARKS
BURLINGTON     MOSUNNY   35  16  45 NE13      30.22S WCI  26
FAIRFIELD *    MOSUNNY   32  12  43 NE8G14    30.25S WCI  25
OTTUMWA        MOSUNNY   32  16  51 NE12      30.23F WCI  23
WASHINGTON *   SUNNY     32   9  37 NE15      30.25S WCI  22
$$

ABBREVIATIONS USED IN REMARKS
   TC - TEMPERATURES IN CELSIUS
  WCI - WIND CHILL INDEX
   HX - HEAT INDEX
  VSB - VISIBILITY
$$


USA.gov is the U.S. government's official web portal to all federal, state and local government web resources and services.